Stations météo

réclame
Mon MeteoGroup
Leutkirch-Herlazhofen, Allemagne (10945): Température de l'air & dewpoint: 11.01.2018 08:00:00 - 17.01.2018 08:00:00 (CET)Leutkirch-Herlazhofen, Allemagne (10945): Température de l'air 5cm & Température de l'air -5cm: 11.01.2018 08:00:00 - 17.01.2018 08:00:00 (CET)Leutkirch-Herlazhofen, Allemagne (10945): Température de l'air -20cm & Température de l'air -100cm: 11.01.2018 08:00:00 - 17.01.2018 08:00:00 (CET)Leutkirch-Herlazhofen, Allemagne (10945): Vitesse du vent & gusts: 11.01.2018 08:00:00 - 17.01.2018 08:00:00 (CET)Leutkirch-Herlazhofen, Allemagne (10945): Direction du vent: 11.01.2018 08:00:00 - 17.01.2018 08:00:00 (CET)Leutkirch-Herlazhofen, Allemagne (10945): reduced air pressure: 11.01.2018 08:00:00 - 17.01.2018 08:00:00 (CET)Leutkirch-Herlazhofen, Allemagne (10945): visibility: 11.01.2018 08:00:00 - 17.01.2018 08:00:00 (CET)Leutkirch-Herlazhofen, Allemagne (10945): Ensoleillement: 11.01.2018 08:00:00 - 17.01.2018 08:00:00 (CET)Leutkirch-Herlazhofen, Allemagne (10945): Quantités de précipitations: 11.01.2018 08:00:00 - 17.01.2018 08:00:00 (CET)
Date & Time tt [°C] td [°C] tt 5cm [°C] tt -5cm [°C] tt -20cm [°C] tt -100cm [°C] ff [km/h] ff [knt] fx [km/h] fx [knt] dd ppp [hPa] vv [km] sd [min] rr [mm]
17.01.2018 08:00:00 0,9 -0,9 -0,1 0,9 2,0 4,4 32 18 58 31 WSW 1003,4 70 0 0,0
17.01.2018 07:00:00 0,5 -0,3 -0,1 1,0 2,0 4,4 33 18 48 26 SW 1002,6 42 0 0,3
17.01.2018 06:00:00 0,0 -0,4 -0,1 1,2 2,1 4,4 26 14 43 23 WSW 1002,0 1,9 0 1,3
17.01.2018 05:00:00 0,1 -0,3 -0,1 1,5 2,1 4,4 21 11 53 29 W 1001,3 0,7 0 1,9
17.01.2018 04:00:00 1,7 0,5 1,2 1,8 2,1 4,4 37 20 54 29 WSW 1001,0 28 0 0,6
17.01.2018 03:00:00 1,9 0,8 1,3 1,8 2,1 4,4 31 17 48 26 W 1000,7 4,8 0 0,9
17.01.2018 02:00:00 1,6 0,7 1,3 1,9 2,1 4,4 19 10 34 19 SW 1000,6 58 0 0,3
17.01.2018 01:00:00 2,1 0,8 1,6 2,0 2,1 4,4 22 12 50 27 SW 1001,4 70 0 0,3
17.01.2018 00:00:00 2,9 1,7 2,3 1,9 2,1 4,4 24 13 36 19 SW 1001,7 70 0 0,2
16.01.2018 23:00:00 1,6 0,7 1,0 2,0 2,1 4,4 17 9 36 19 SW 1002,8 16 0 0,7
16.01.2018 22:00:00 1,7 0,6 1,5 2,4 2,1 4,4 16 9 53 29 NW 1002,6 26 0 1,3
16.01.2018 21:00:00 3,2 2,2 2,8 2,4 2,0 4,5 22 12 38 21 SW 1001,9 22 0 0,0
16.01.2018 20:00:00 3,3 2,2 2,8 2,4 2,0 4,5 22 12 47 25 WSW 1002,4 70 0 0,6
16.01.2018 19:00:00 3,5 2,0 2,8 2,5 1,9 4,5 29 16 53 29 WSW 1002,8 11 0 0,2
16.01.2018 18:00:00 3,7 2,1 2,9 2,6 1,8 4,5 22 12 41 22 SW 1002,7 70 0 0,2
16.01.2018 17:00:00 4,0 2,5 3,3 2,7 1,7 4,5 26 14 56 31 WSW 1002,6 70 0 1,3
16.01.2018 16:00:00 3,7 2,4 3,1 2,9 1,5 4,5 45 24 85 46 W 1002,3 3,5 0 5,4
16.01.2018 15:00:00 6,0 4,0 4,5 2,5 1,4 4,5 48 26 82 44 WSW 1000,0 2,4 0 1,7
16.01.2018 14:00:00 4,8 4,0 4,4 2,2 1,3 4,5 30 16 59 32 WSW 1000,4 4,3 0 2,5
16.01.2018 13:00:00 5,3 3,3 4,5 1,8 1,2 4,5 36 20 63 34 WSW 1001,0 39 0 0,8
16.01.2018 12:00:00 5,8 2,4 4,5 1,0 1,2 4,5 33 18 62 33 WSW 1001,9 20 0 0,0
16.01.2018 11:00:00 5,2 2,7 4,0 0,3 1,2 4,5 30 16 55 30 WSW 1003,0 14 0 1,0
16.01.2018 10:00:00 4,5 2,8 3,9 0,2 1,2 4,5 24 13 49 26 SW 1002,9 70 0 0,8
16.01.2018 09:00:00 3,9 1,9 2,7 0,2 1,2 4,5 37 20 53 29 SW 1003,0 3,8 0 0,6
16.01.2018 08:00:00 3,7 0,5 2,2 0,2 1,2 4,5 29 15 45 24 SSW 1002,8 23 0 0,2
16.01.2018 07:00:00 3,2 0,3 1,8 0,2 1,2 4,5 31 17 48 26 SSW 1003,2 53 0 0,4
16.01.2018 06:00:00 2,5 0,7 1,4 0,2 1,3 4,6 17 9 29 16 SSW 1004,5 33 0 0,2
16.01.2018 05:00:00 2,0 0,4 1,2 0,2 1,3 4,6 17 9 47 25 S 1005,7 70 0 0,0
16.01.2018 04:00:00 2,0 0,1 0,9 0,2 1,3 4,6 29 16 45 24 SSW 1006,3 12 0 0,8
16.01.2018 03:00:00 1,1 0,1 0,4 0,2 1,3 4,6 22 12 32 17 SSW 1006,9 7 0 1,1
16.01.2018 02:00:00 1,1 -0,1 0,4 0,2 1,3 4,6 23 13 37 20 SSW 1007,3 10 0 0,5
16.01.2018 01:00:00 1,6 -0,6 0,7 0,1 1,3 4,6 19 11 32 17 SSW 1007,6 18 0 0,2
16.01.2018 00:00:00 2,1 -1,4 1,1 0,1 1,3 4,6 19 10 40 22 SW 1008,5 21 0 0,0
15.01.2018 23:00:00 2,6 -3,7 1,7 0,1 1,3 4,6 14 8 34 18 SSW 1008,9 45 0 0,0
15.01.2018 22:00:00 2,6 -2,7 1,6 0,1 1,3 4,6 11 6 25 14 SSW 1010,0 29 0 0,0
15.01.2018 21:00:00 2,1 -2,3 1,2 0,1 1,3 4,6 15 8 21 11 S 1010,9 22 0 0,0
15.01.2018 20:00:00 1,6 -2,5 0,5 0,1 1,3 4,6 11 6 16 9 SSW 1011,8 21 0 0,0
15.01.2018 19:00:00 0,8 -3,1 -0,7 0,1 1,3 4,6 8 4 12 6 S 1012,3 32 0 0,0
15.01.2018 18:00:00 0,8 -4,5 -0,5 0,1 1,3 4,6 7 4 9 5 SSW 1013,3 70 0 0,0
15.01.2018 17:00:00 0,8 -4,2 -1,8 0,1 1,3 4,6 5 3 10 6 SW 1014,7 51 0 0,0
15.01.2018 16:00:00 2,4 -3,5 1,0 0,1 1,3 4,6 6 4 10 5 SW 1015,5 57 0 0,0
15.01.2018 15:00:00 2,5 -2,5 1,6 0,0 1,3 4,6 6 4 11 6 S 1016,5 35 0 0,0
15.01.2018 14:00:00 2,8 -3,6 2,8 0,0 1,3 4,6 11 6 15 8 WSW 1017,3 39 0 0,0
15.01.2018 13:00:00 3,5 -4,6 3,8 0,0 1,3 4,6 9 5 17 9 SSW 1018,3 49 43 0,0
15.01.2018 12:00:00 2,6 -4,7 3,3 0,0 1,3 4,6 9 5 14 8 SSW 1020,0 36 60 0,0
15.01.2018 11:00:00 0,3 -4,1 0,9 0,0 1,4 4,6 8 4 13 7 S 1022,0 22 60 0,0
15.01.2018 10:00:00 -2,0 -4,9 -1,9 -0,1 1,4 4,6 9 5 11 6 S 1023,0 9 60 0,0
15.01.2018 09:00:00 -4,1 -5,1 -4,3 0,0 1,4 4,6 7 4 14 8 S 1023,8 2,6 15 0,0
15.01.2018 08:00:00 -3,2 -3,9 -3,6 0,0 1,4 4,6 10 5 14 7 S 1023,8 2,6 0 0,0
15.01.2018 07:00:00 -2,9 -3,8 -3,3 0,0 1,4 4,6 6 3 16 9 SSW 1023,7 3,4 0 0,0
15.01.2018 06:00:00 -3,0 -3,8 -3,0 0,1 1,4 4,6 8 4 18 10 SSW 1024,0 2,9 0 0,0
15.01.2018 05:00:00 -5,4 -6,3 -7,1 0,1 1,4 4,6 2 1 10 5 WSW 1025,0 4,5 0 0,0
15.01.2018 04:00:00 -4,2 -5,1 -7,0 0,2 1,5 4,6 5 3 10 5 S 1024,7 4,7 0 0,0
15.01.2018 03:00:00 -3,3 -4,3 -5,0 0,2 1,5 4,6 9 5 11 6 S 1024,7 4,6 0 0,0
15.01.2018 02:00:00 -3,2 -4,3 -5,5 0,2 1,5 4,7 6 4 11 6 S 1025,0 4,9 0 0,0
15.01.2018 01:00:00 -2,0 -3,9 -3,3 0,2 1,5 4,7 8 4 12 7 SW 1025,1 7 0 0,0
15.01.2018 00:00:00 -1,4 -3,9 -1,7 0,2 1,5 4,7 10 5 19 10 SW 1024,9 8 0 0,0
14.01.2018 23:00:00 -1,1 -3,5 -1,3 0,2 1,5 4,7 10 6 14 8 SW 1024,7 8 0 0,0
14.01.2018 22:00:00 -1,0 -3,7 -1,1 0,2 1,5 4,7 10 5 16 9 SSW 1024,8 8 0 0,0
14.01.2018 21:00:00 -0,7 -3,2 -1,0 0,2 1,5 4,7 8 4 13 7 SSW 1024,4 8 0 0,0
14.01.2018 20:00:00 -0,7 -2,6 -1,0 0,2 1,5 4,7 4 2 6 3 SSW 1024,0 9 0 0,0
14.01.2018 19:00:00 -0,7 -3,0 -1,0 0,2 1,6 4,7 2 1 7 4 NNE 1023,7 11 0 0,0
14.01.2018 18:00:00 -0,6 -2,7 -1,0 0,2 1,6 4,7 3 1 5 3 NNW 1023,3 10 0 0,0
14.01.2018 17:00:00 -0,5 -2,8 -0,8 0,1 1,6 4,7 5 3 8 4 NNW 1022,9 12 0 0,0
14.01.2018 16:00:00 -0,2 -3,0 -0,2 0,1 1,6 4,7 5 3 8 5 NW 1022,5 12 0 0,0
14.01.2018 15:00:00 -0,1 -3,2 0,1 0,1 1,6 4,7 5 3 8 5 N 1022,1 12 0 0,0
14.01.2018 14:00:00 -0,1 -2,8 0,1 0,1 1,6 4,7 5 3 11 6 NNW 1022,0 10 0 0,0
14.01.2018 13:00:00 -0,4 -3,0 0,0 0,1 1,7 4,7 3 1 4 2 NE 1022,3 8 0 0,0
14.01.2018 12:00:00 -1,1 -2,5 -0,9 0,1 1,7 4,7 2 1 4 2 NNW 1023,2 6 0 0,0
14.01.2018 11:00:00 -1,5 -2,8 -1,4 0,1 1,7 4,7 0 0 4 2 N 1023,5 8 0 0,0
14.01.2018 10:00:00 -2,1 -3,5 -2,0 0,1 1,8 4,7 4 2 7 4 S 1023,4 8 0 0,0
14.01.2018 09:00:00 -2,6 -3,6 -2,5 0,1 1,8 4,7 4 2 6 4 SE 1023,1 6 0 0,0
14.01.2018 08:00:00 -3,1 -4,2 -3,1 0,1 1,9 4,7 3 2 8 5 ESE 1023,2 8 0 0,0
14.01.2018 07:00:00 -4,3 -5,1 -4,2 0,1 1,9 4,7 4 2 5 3 SE 1023,1 5 0 0,0
14.01.2018 06:00:00 -5,1 -5,6 -8,3 0,2 2,0 4,7 0 0 3 2 N 1023,1 4,5 0 0,0
14.01.2018 05:00:00 -5,5 -6,0 -9,3 0,3 2,0 4,7 0 0 3 1 N 1023,2 3,1 0 0,0
14.01.2018 04:00:00 -5,2 -5,5 -9,3 0,4 2,1 4,7 1 0 3 2 W 1023,2 3,3 0 0,0
14.01.2018 03:00:00 -5,4 -6,3 -9,0 0,5 2,1 4,7 0 0 3 2 N 1023,4 0,4 0 0,0
14.01.2018 02:00:00 -4,7 -5,1 -8,6 0,6 2,2 4,7 0 0 4 2 N 1023,4 2,3 0 0,0
14.01.2018 01:00:00 -4,6 -5,1 -8,3 0,7 2,2 4,7 0 0 3 2 N 1023,3 3,4 0 0,0
14.01.2018 00:00:00 -4,9 -5,5 -8,3 0,7 2,3 4,7 0 0 3 2 S 1024,0 2,0 0 0,0
13.01.2018 23:00:00 -4,7 -5,6 -7,8 0,8 2,4 4,7 0 0 4 2 N 1024,3 5 0 0,0
13.01.2018 22:00:00 -4,1 -5,0 -7,3 1,0 2,4 4,7 2 1 5 3 NW 1024,4 7 0 0,0
13.01.2018 21:00:00 -2,6 -4,1 -6,3 1,1 2,5 4,7 3 2 6 3 N 1023,9 10 0 0,0
13.01.2018 20:00:00 -3,7 -5,5 -6,3 1,3 2,5 4,7 4 2 6 4 NNE 1024,5 10 0 0,0
13.01.2018 19:00:00 -1,4 -3,4 -5,3 1,5 2,6 4,7 4 2 5 3 NNE 1023,9 13 0 0,0
13.01.2018 18:00:00 -1,2 -3,3 -5,1 1,7 2,6 4,7 3 2 12 7 NNE 1023,9 16 0 0,0
13.01.2018 17:00:00 0,1 -3,1 -2,3 2,3 2,5 4,7 8 4 16 9 ENE 1023,7 19 42 0,0
13.01.2018 16:00:00 1,4 -2,8 1,2 3,2 2,4 4,7 8 5 16 9 ENE 1023,4 19 60 0,0
13.01.2018 15:00:00 1,9 -2,3 3,0 3,3 2,3 4,7 9 5 22 12 E 1023,1 17 59 0,0
13.01.2018 14:00:00 1,5 -2,8 2,9 2,9 2,2 4,7 13 7 20 11 E 1023,6 23 44 0,0
13.01.2018 13:00:00 0,8 -2,8 1,6 1,9 2,2 4,7 11 6 18 10 E 1024,2 24 0 0,0
13.01.2018 12:00:00 0,6 -3,2 1,2 1,4 2,2 4,7 12 7 24 13 E 1024,7 22 0 0,0
13.01.2018 11:00:00 0,7 -2,9 0,8 1,1 2,2 4,7 15 8 23 12 E 1025,3 21 0 0,0
13.01.2018 10:00:00 0,6 -2,9 0,5 1,0 2,2 4,7 11 6 23 12 E 1025,4 21 0 0,0
13.01.2018 09:00:00 0,6 -2,9 0,3 1,0 2,3 4,7 17 9 24 13 E 1025,4 23 0 0,0
13.01.2018 08:00:00 0,4 -1,8 0,1 1,1 2,3 4,7 5 3 9 5 E 1025,4 10 0 0,0
13.01.2018 07:00:00 0,4 -1,7 0,0 1,1 2,3 4,7 5 3 15 8 ESE 1025,6 10 0 0,0
13.01.2018 06:00:00 0,6 -2,1 0,3 1,1 2,4 4,7 9 5 21 11 E 1025,7 14 0 0,0
13.01.2018 05:00:00 0,6 -2,3 0,3 1,1 2,4 4,7 14 7 22 12 E 1025,8 14 0 0,0
13.01.2018 04:00:00 0,6 -1,9 0,3 1,2 2,4 4,7 7 4 25 14 E 1025,9 12 0 0,0
13.01.2018 03:00:00 0,7 -2,0 0,4 1,3 2,5 4,7 13 7 24 13 ENE 1026,1 13 0 0,0
13.01.2018 02:00:00 1,0 -2,0 0,7 1,3 2,5 4,7 16 9 24 13 ENE 1025,9 13 0 0,0
13.01.2018 01:00:00 0,9 -1,9 0,6 1,4 2,6 4,7 10 6 21 11 ENE 1026,0 12 0 0,0
13.01.2018 00:00:00 1,1 -1,5 0,7 1,5 2,6 4,7 9 5 16 9 ENE 1026,3 11 0 0,0
12.01.2018 23:00:00 1,1 -1,6 0,7 1,5 2,6 4,7 8 4 21 11 E 1026,6 12 0 0,0
12.01.2018 22:00:00 1,4 -1,6 1,0 1,6 2,7 4,7 13 7 27 14 E 1026,3 13 0 0,0
12.01.2018 21:00:00 1,8 -1,5 1,2 1,8 2,7 4,7 12 6 21 11 E 1026,2 14 0 0,0
12.01.2018 20:00:00 1,9 -1,0 1,4 1,9 2,7 4,7 6 3 18 10 E 1025,9 14 0 0,0
12.01.2018 19:00:00 1,7 -1,3 1,2 2,0 2,8 4,7 9 5 26 14 ENE 1026,0 15 0 0,0
12.01.2018 18:00:00 1,7 -1,4 1,3 2,2 2,8 4,7 14 8 27 14 ENE 1026,0 18 0 0,0
12.01.2018 17:00:00 1,7 -0,4 1,3 2,5 2,7 4,7 9 5 15 8 ENE 1025,6 13 0 0,0
12.01.2018 16:00:00 1,9 -0,1 1,9 2,8 2,7 4,7 8 5 15 8 NE 1025,5 12 0 0,0
12.01.2018 15:00:00 2,0 -0,2 2,2 2,8 2,6 4,7 7 4 19 10 NE 1025,1 15 0 0,0
12.01.2018 14:00:00 2,1 0,4 2,5 2,8 2,6 4,7 9 5 13 7 ENE 1024,9 15 0 0,0
12.01.2018 13:00:00 1,9 0,2 2,4 2,5 2,5 4,7 9 5 19 11 E 1024,9 14 0 0,0
12.01.2018 12:00:00 1,5 0,1 1,8 2,3 2,5 4,7 9 5 14 7 NE 1025,3 11 0 0,0
12.01.2018 11:00:00 1,1 0,4 1,5 2,0 2,5 4,7 8 4 16 9 NE 1025,4 5 0 0,0
12.01.2018 10:00:00 0,9 0,3 1,2 1,8 2,5 4,7 9 5 17 9 NE 1025,0 5 0 0,0
12.01.2018 09:00:00 1,0 0,5 1,0 1,8 2,5 4,7 9 5 14 8 NNE 1024,6 4,5 0 0,0
12.01.2018 08:00:00 1,1 0,6 0,9 1,8 2,5 4,7 8 4 12 7 NE 1024,2 4,3 0 0,0
12.01.2018 07:00:00 1,1 1,0 1,1 1,8 2,5 4,7 8 4 13 7 NNE 1023,7 1,4 0 0,0
12.01.2018 06:00:00 1,0 0,9 1,0 1,8 2,5 4,7 8 5 12 6 NE 1023,2 2,4 0 0,0
12.01.2018 05:00:00 0,8 0,8 0,9 1,8 2,6 4,7 6 3 11 6 NNE 1023,1 0,7 0 0,0
12.01.2018 04:00:00 0,8 0,7 0,8 1,8 2,6 4,7 7 4 11 6 NE 1023,0 0,4 0 0,0
12.01.2018 03:00:00 0,8 0,7 0,8 1,8 2,6 4,7 6 3 11 6 NE 1023,0 0,7 0 0,0
12.01.2018 02:00:00 0,8 0,7 0,8 1,8 2,6 4,7 7 4 13 7 NE 1022,4 0,9 0 0,0
12.01.2018 01:00:00 0,8 0,8 0,8 1,8 2,6 4,7 8 4 12 6 NNE 1022,0 1,0 0 0,0
12.01.2018 00:00:00 0,8 0,8 0,8 1,8 2,7 4,7 6 4 12 6 NNE 1021,7 0,3 0 0,0
11.01.2018 23:00:00 0,8 0,8 0,8 1,8 2,7 4,8 8 5 13 7 NE 1021,5 0,5 0 0,0
11.01.2018 22:00:00 0,6 0,6 0,7 1,8 2,7 4,8 9 5 15 8 NNE 1021,1 0,3 0 0,0
11.01.2018 21:00:00 0,5 0,5 0,5 1,8 2,8 4,8 8 4 16 9 ENE 1020,7 0,2 0 0,0
11.01.2018 20:00:00 0,5 0,5 0,5 1,8 2,8 4,8 10 5 14 8 NE 1020,3 0,1 0 0,0
11.01.2018 19:00:00 1,2 0,7 0,1 2,1 2,8 4,8 8 5 11 6 NE 1019,6 2,5 0 0,0
11.01.2018 18:00:00 3,0 1,5 -0,7 2,8 2,8 4,8 3 2 9 5 NNW 1018,3 8 0 0,0
11.01.2018 17:00:00 3,9 1,7 2,5 3,5 2,7 4,8 6 3 12 7 NE 1017,4 9 0 0,0
11.01.2018 16:00:00 4,7 1,2 4,1 3,8 2,5 4,8 8 5 13 7 NE 1016,6 20 5 0,0
11.01.2018 15:00:00 5,6 2,1 5,9 3,8 2,3 4,8 4 2 9 5 NNE 1015,6 17 19 0,0
11.01.2018 14:00:00 5,6 0,8 6,4 3,2 2,2 4,8 4 2 9 5 NNE 1015,0 27 3 0,0
11.01.2018 13:00:00 5,3 0,7 6,3 2,1 2,2 4,8 6 3 9 5 NE 1014,9 33 55 0,0
11.01.2018 12:00:00 4,3 1,1 5,3 0,9 2,3 4,8 5 3 8 4 NW 1015,3 17 60 0,0
11.01.2018 11:00:00 2,3 -0,5 3,5 0,9 2,3 4,8 3 2 5 3 WNW 1016,0 23 51 0,0
11.01.2018 10:00:00 0,0 -1,1 -0,1 0,9 2,3 4,8 2 1 4 2 ESE 1016,6 8 0 0,0
11.01.2018 09:00:00 -1,4 -2,2 -2,0 0,9 2,4 4,8 0 0 4 2 N 1016,7 9 0 0,0
11.01.2018 08:00:00 -2,1 -2,7 -2,3 0,9 2,4 4,8 3 2 5 3 W 1016,5 10 0 0,0

tt = Température de l'air
td = dewpoint
tt 5cm = Température de l'air 5cm
tt -5cm = Température de l'air -5cm
tt -20cm = Température de l'air -20cm
tt -100cm = Température de l'air -100cm
ff = Vitesse du vent
fx = gusts
dd = Direction du vent
ppp = reduced air pressure
vv = visibility
sd = Ensoleillement
rr = Quantités de précipitations

stations d'obs. à proximité